Lexington Weather

Lexington, Massachusetts, USA

34°F
4/16/2021 10:29am 
  • Lexington Conditions: Snow, Fog, Overcast
  • Temperature: 34.0°F / 1.1°C 
  • Dew Point: 32.7°F 
  • Relative Humidity: 95
  • Wind: Calm, 10-min avg: Calm, gust: None
  • Barometer: 29.48 in Steady
  • Visibility: ½ mile
  • Snow Today: 1.3 in
  •   

Regional Weather Roundup
for Boston / Norton, MA

        
000
ASUS41 KBOX 111004
RWRBOX

REGIONAL WEATHER ROUNDUP
NATIONAL WEATHER SERVICE BOSTON/NORTON MA
600 AM EDT SUN APR 11 2021

NOTE:  "FAIR" INDICATES FEW OR NO CLOUDS BELOW 12,000 FEET WITH NO 
SIGNIFICANT WEATHER AND/OR OBSTRUCTIONS TO VISIBILITY.

MAZALL-111100-
EASTERN MASSACHUSETTS
  
CITY           SKY/WX    TMP DP  RH WIND       PRES   REMARKS
BOSTON         CLOUDY    49  45  86 N16       29.75R                  
BEVERLY        NOT AVBL                                               
LAWRENCE       CLOUDY    48  46  93 N13       29.77R                  
BEDFORD        CLOUDY    49  46  90 NE10      29.73R                  
BLUE HILL        N/A     45  45 100 NE12      29.72R                  
NORWOOD        CLOUDY    49  46  90 VRB5      29.75R                  
MARSHFIELD     FOG       46  46 100 VRB7      29.73S VSB 1/2          
PLYMOUTH       CLOUDY    50  48  93 N6        29.73R                  
TAUNTON        FOG       53  52  96 CALM      29.73R VSB 3/4          
NEW BEDFORD    CLOUDY    53  52  96 N5        29.72R FOG              
$$

MAZALL-111100-
CAPE COD AND THE ISLANDS
  
CITY           SKY/WX    TMP DP  RH WIND       PRES   REMARKS
FALMOUTH       FOG       50  50 100 W5        29.73R VSB 1/2          
HYANNIS        FOG       51  50  96 NW5       29.71R VSB 1            
CHATHAM        FOG       50  49  96 W5        29.72R VSB 1/2          
PROVINCETOWN   FOG       43  43 100 NW14      29.72S VSB 1/4          
NANTUCKET      FOG       50  50 100 W10       29.72S VSB 1/4          
MARTHAS VNYRD  FOG       52  52 100 W7        29.71S VSB 1            
$$
 
MAZALL-111100-
CENTRAL AND WESTERN MASSACHUSETTS
  
CITY           SKY/WX    TMP DP  RH WIND       PRES   REMARKS
WORCESTER      PTCLDY    55  51  86 N7        29.73R                  
FITCHBURG      CLOUDY    54  51  90 NE7       29.75R                  
ORANGE         CLOUDY    49  48  97 CALM      29.73R                  
SPRINGFIELD    CLOUDY    50  50 100 CALM      29.69S                  
WESTFIELD      PTCLDY    50  50 100 S3        29.70S FOG              
NORTH ADAMS    PTCLDY    49  46  90 CALM      29.69S                  
PITTSFIELD     PTCLDY    49  47  93 CALM      29.69S                  
$$
 
RIZALL-111100-
RHODE ISLAND
  
CITY           SKY/WX    TMP DP  RH WIND       PRES   REMARKS
PROVIDENCE     MOCLDY    55  53  93 CALM      29.71R                  
NEWPORT        FOG       52  52 100 CALM      29.71S VSB 1/4          
BLOCK ISLAND   FOG       50  50 100 CALM      29.73R VSB 1/2          
SMITHFIELD     PTCLDY    52  52 100 E6        29.73R                  
WESTERLY       FOG       51  51 100 CALM      29.72R VSB 1/2          
$$
 
CTZALL-111100-
CONNECTICUT
  
CITY           SKY/WX    TMP DP  RH WIND       PRES   REMARKS
BRADLEY INTL   FOG       51  50  96 S6        29.70S VSB 1/2          
HARTFORD       CLOUDY    54  52  93 CALM      29.71S FOG              
BRIDGEPORT     FOG       51  50  96 E6        29.70F VSB 1/4          
DANBURY        FOG       54  52  93 CALM      29.70F VSB 1/4          
GROTON         FOG       53  53 100 CALM      29.71S VSB 1            
NEW HAVEN      FOG       53  52  96 CALM      29.70F VSB 1/4          
CHESTER        FOG       52  52 100 CALM      29.71S VSB<1/4          
MERIDEN        FOG       53  52  96 CALM      29.70F VSB 3/4          
WILLIMANTIC    FOG       52  51  97 CALM      29.72R VSB 1/4          
OXFORD           N/A     49  49 100 CALM      29.70F FOG              
$$

MEZ002-015-021-024-NHZ003-005-008-011-012-014-VTZ005-008-111100-
NORTHERN NEW ENGLAND
  
CITY           SKY/WX    TMP DP  RH WIND       PRES   REMARKS
PORTLAND ME    CLEAR     43  37  79 NE7       29.79S                  
BANGOR ME      CLOUDY    41  34  76 NE8       29.85R                  
CONCORD NH     CLOUDY    48  43  82 NE6       29.77R                  
MANCHESTER NH  CLOUDY    50  45  83 NE6       29.75R                  
NASHUA NH      CLOUDY    49  49 100 NE6       29.76R                  
PORTSMOUTH NH  CLOUDY    45  38  78 NE10      29.78R                  
JAFFREY NH     MOCLDY    47  45  93 CALM      29.74R                  
KEENE NH       FOG       44  44 100 S3        29.73R VSB 1/2          
BURLINGTON VT  PTCLDY    50  46  86 NW7       29.69R                  
MT. WASHINGTON PTCLDY    39  34  81 NW24        N/A  WCI  28          
$$

NYZ052-076-111100-
EASTERN NEW YORK
  
CITY           SKY/WX    TMP DP  RH WIND       PRES   REMARKS
ALBANY         CLOUDY    54  52  93 SE5       29.67F                  
NEW YORK CITY  FOG       53  51  93 NE5       29.68F VSB 1/4          
$$
 
ANZALL-111100-
MARINE OBSERVATIONS
  
STATION/POSITION TIME  TEMP    WIND        PRES    VSBY  WAVE
                       AIR SEA DIR/SP/G                  HT/PER
                 (UTC) (F)     (DEG/KT/KT) (MB)    (MI)  (FT/S)
BOSTON BUOY      0940   45 45  360/ 16/ 17 1007.4R
BUZZARDS BAY     0900          230/  8/  9 1007.2F
NANTUCKET SOUND  0940      46                N/A
MASS BAY-STELLWA 0904   45     360/ 12/ 16 1005.7R   3/4   4/11
ISLE OF SHOALS   0900   44      20/ 24/ 25 1006.6R
S OF BLOCK IS    0926      46                N/A           3/11
$$

......................KEY.........................
  SKY/WX - SKY CONDITION/PRESENT WEATHER
  TMP    - TEMPERATURE IN FAHRENHEIT
  DWPT   - DEWPOINT IN FAHRENHEIT
  RH     - RELATIVE HUMIDITY IN PERCENT
  WIND   - DIRECTION AND SPEED IN MPH
  PRES   - MEAN SEA LEVEL PRESSURE IN INCHES OF HG
  WCI    - WIND CHILL INDEX
  VSB    - VISIBILITY IN MILES
  HX     - HEAT INDEX
  TC     - TEMPERATURE IN CELSIUS
  VRB    - VARIABLE WIND DIRECTION
  N/A    - NOT AVAILABLE
  
      

Other recent Regional Weather Roundups

Fri Apr 16, 10:05am

Fri Apr 16, 9:04am

Fri Apr 16, 8:04am

Fri Apr 16, 7:04am

Fri Apr 16, 6:04am

Fri Apr 16, 5:04am

Fri Apr 16, 4:04am

Fri Apr 16, 3:04am

Fri Apr 16, 2:04am

Fri Apr 16, 1:04am

Fri Apr 16, 12:04am

Thu Apr 15, 11:05pm

Thu Apr 15, 10:04pm

Thu Apr 15, 9:04pm

Thu Apr 15, 8:04pm

Thu Apr 15, 7:05pm

Thu Apr 15, 6:04pm

Thu Apr 15, 5:05pm

Thu Apr 15, 4:04pm

Thu Apr 15, 3:05pm

Thu Apr 15, 2:04pm

Thu Apr 15, 1:05pm

Thu Apr 15, 12:04pm

Thu Apr 15, 11:04am

Thu Apr 15, 10:05am

Thu Apr 15, 9:04am

Thu Apr 15, 8:04am

Thu Apr 15, 7:04am

Thu Apr 15, 6:04am

Thu Apr 15, 5:04am

Thu Apr 15, 4:04am

Thu Apr 15, 3:04am

Thu Apr 15, 2:04am

Thu Apr 15, 1:04am

Thu Apr 15, 12:04am

Wed Apr 14, 11:04pm

Wed Apr 14, 10:04pm

Wed Apr 14, 9:04pm

Wed Apr 14, 8:04pm

Wed Apr 14, 7:04pm

Wed Apr 14, 6:04pm

Wed Apr 14, 5:05pm

Wed Apr 14, 4:04pm

Wed Apr 14, 3:05pm

Wed Apr 14, 2:04pm

Wed Apr 14, 1:05pm

Wed Apr 14, 12:04pm

Wed Apr 14, 11:04am

Wed Apr 14, 10:04am

Wed Apr 14, 9:04am

Wed Apr 14, 8:04am

Wed Apr 14, 7:04am

Wed Apr 14, 6:04am

Wed Apr 14, 5:04am

Wed Apr 14, 4:04am

Wed Apr 14, 3:04am

Wed Apr 14, 2:04am

Wed Apr 14, 1:04am

Wed Apr 14, 12:04am

Tue Apr 13, 11:04pm

Tue Apr 13, 10:05pm

Tue Apr 13, 9:05pm

Tue Apr 13, 8:05pm

Tue Apr 13, 7:04pm

Tue Apr 13, 6:04pm

Tue Apr 13, 5:05pm

Tue Apr 13, 4:04pm

Tue Apr 13, 3:04pm

Tue Apr 13, 2:05pm

Tue Apr 13, 1:04pm

Tue Apr 13, 12:05pm

Tue Apr 13, 11:05am

Tue Apr 13, 10:04am

Tue Apr 13, 9:04am

Tue Apr 13, 8:04am

Tue Apr 13, 7:04am

Tue Apr 13, 6:04am

Tue Apr 13, 5:04am

Tue Apr 13, 4:04am

Tue Apr 13, 3:04am

Tue Apr 13, 2:04am

Tue Apr 13, 1:04am

Tue Apr 13, 12:05am

Mon Apr 12, 11:04pm

Mon Apr 12, 10:04pm

Mon Apr 12, 9:04pm

Mon Apr 12, 8:04pm

Mon Apr 12, 7:05pm

Mon Apr 12, 6:04pm

Mon Apr 12, 5:04pm

Mon Apr 12, 4:04pm

Mon Apr 12, 3:05pm

Mon Apr 12, 2:04pm

Mon Apr 12, 1:05pm

Mon Apr 12, 12:04pm

Mon Apr 12, 11:04am

Mon Apr 12, 10:04am

Mon Apr 12, 9:04am

Mon Apr 12, 8:04am

Mon Apr 12, 7:04am

Mon Apr 12, 6:04am

Mon Apr 12, 5:04am

Mon Apr 12, 4:04am

Mon Apr 12, 3:04am

Mon Apr 12, 2:04am

Mon Apr 12, 1:05am

Mon Apr 12, 12:04am

Sun Apr 11, 11:04pm

Sun Apr 11, 10:04pm

Sun Apr 11, 9:04pm

Sun Apr 11, 8:04pm

Sun Apr 11, 7:04pm

Sun Apr 11, 6:05pm

Sun Apr 11, 5:05pm

Sun Apr 11, 4:04pm

Sun Apr 11, 3:05pm

Sun Apr 11, 2:05pm

Sun Apr 11, 1:05pm

Sun Apr 11, 12:04pm

Sun Apr 11, 11:05am

Sun Apr 11, 10:05am

Sun Apr 11, 9:04am

Sun Apr 11, 8:04am

Sun Apr 11, 7:04am

Sun Apr 11, 5:04am

Sun Apr 11, 4:04am

Sun Apr 11, 3:04am

Sun Apr 11, 2:04am

Sun Apr 11, 1:05am

Sun Apr 11, 12:04am

Sat Apr 10, 11:05pm

Sat Apr 10, 10:04pm

Sat Apr 10, 9:04pm

Sat Apr 10, 8:04pm

Sat Apr 10, 7:05pm

Sat Apr 10, 6:04pm

Sat Apr 10, 5:04pm

Sat Apr 10, 4:04pm

Sat Apr 10, 3:04pm

Sat Apr 10, 2:05pm

Sat Apr 10, 1:04pm

Sat Apr 10, 12:04pm

Sat Apr 10, 11:04am

Sat Apr 10, 10:04am

Sat Apr 10, 9:04am

Sat Apr 10, 8:04am

Sat Apr 10, 7:04am

Sat Apr 10, 6:04am

Sat Apr 10, 5:04am

Sat Apr 10, 4:04am

Sat Apr 10, 3:04am

Sat Apr 10, 2:04am

Sat Apr 10, 1:05am

Sat Apr 10, 12:04am

Fri Apr 9, 11:04pm

Fri Apr 9, 10:05pm

Fri Apr 9, 9:04pm

Fri Apr 9, 8:05pm

Fri Apr 9, 7:05pm

Fri Apr 9, 6:04pm

Fri Apr 9, 5:04pm

Fri Apr 9, 4:05pm

Fri Apr 9, 3:05pm

Fri Apr 9, 2:04pm

Fri Apr 9, 1:04pm

Fri Apr 9, 12:04pm

Fri Apr 9, 11:05am

Meta data:

ID: 2119eeaa-1915-41ef-b47e-fe42f4183bc9
Link: https://api.weather.gov/products/2119eeaa-1915-41ef-b47e-fe42f4183bc9